User: anonymous
Location: Oshawa
(43.9000°N, 78.8670°W)
Time: 01:45:23
(UTC-04:00)
Language:

Cosmos 839 Rocket - Orbit

View from above orbital plane
View from above orbital plane
View from above satellite
View from above satellite

Ground track
Ground track

The orbit data is extracted from the following two-line orbital elements,

1 09013U 76067B   14212.48686249  .00000000  00000-0  13356-5 0  5287
2 09013 065.8648 248.2837 0707528 125.5548 241.3952 12.35304234716743
Epoch (UTC): 31 July 2014 11:41:04
Eccentricity: 0.0707528
inclination: 65.8648°
perigee height: 967 km
apogee height: 2086 km
right ascension of ascending node: 248.2837°
argument of perigee: 125.5548°
revolutions per day: 12.35304234
mean anomaly at epoch: 241.3952°
orbit number at epoch: 71674

The dashed part of the orbit path shows where the satellite is in the earth's shadow,  

DLR